Location: Sungai Eiyak
(2.3500°N, 113.8833°E)
Time: 04:14:48
(UTC+00:00)

Daily predictions for brighter satellites

Satellite Brightness Start Highest point End
(mag) Time Altitude Azimuth Time Altitude Azimuth Time Altitude Azimuth
Meteor 1-25 Rocket 4.3 10:29:42 10° N 10:35:19 89° W 10:41:02 10° S
Cosmos 2026 Rocket 3.9 10:33:13 10° N 10:39:14 77° E 10:45:18 10° S
GPS 2-14 Rocket1 3.6 10:36:32 10° NW 10:39:57 30° NNE 10:43:26 10° E
ARIANE 5 R/B 0.0 10:38:15 10° W 10:40:08 85° N 10:43:06 10° E
Cosmos 921 Rocket 3.7 10:39:35 10° SSW 10:43:41 56° W 10:47:45 10° N
ARGOS 3.7 10:40:08 10° SE 10:45:01 35° ENE 10:49:53 10° NNE
Okean O Rocket 2.3 10:43:51 10° SE 10:47:49 33° ENE 10:51:48 10° NNE
Cosmos 1937 Rocket 4.0 10:43:09 10° N 10:48:01 37° ENE 10:52:50 10° SE
NOSS 3-1 (C) 4.4 10:39:58 10° NNW 10:48:43 63° ENE 10:57:42 10° SSE
ARIANE 5 R/B 3.6 10:47:27 10° WSW 10:51:04 60° S 11:12:12 10° E
Cosmos 1666 3.3 10:48:20 10° NNE 10:51:40 32° E 10:55:01 10° SSE
CZ-4B R/B 3.1 10:51:34 12° E 10:52:06 12° E 10:53:27 10° SE
PAYLOAD B 4.3 10:46:36 10° SSE 10:52:13 88° ENE 10:57:49 10° NNW
Meteor 2-14 Rocket 4.5 10:47:22 10° N 10:53:26 87° W 10:59:30 10° S
Milstar 3 Cent rocket 3.7 10:49:35 10° W 10:53:43 31° SSW 10:58:31 10° SE
ARIANE 3 DEB 2.1 10:52:55 10° WSW 10:55:06 54° S 10:57:30 14° E
BLOCK DM-SL R/B 3.0 10:51:22 10° W 10:55:43 68° S 11:00:25 10° E
Cosmos 990 Rocket 4.3 10:51:44 10° NNW 10:56:50 70° WSW 11:01:56 10° S
CZ-4B R/B 3.2 10:54:56 10° SSE 11:00:29 68° ENE 11:05:54 10° N
IRAS Rocket 4.3 10:55:20 10° NNE 11:00:51 88° WNW 11:06:26 10° SSW
ARIANE 2 DEB 4.0 10:59:21 10° WNW 11:02:04 39° N 11:05:12 17° ENE
VEP-3 3.0 10:56:32 10° WSW 11:02:28 59° NNW 11:08:00 15° NE
Cosmos 1633 Rocket 3.3 10:58:51 10° NNE 11:03:05 48° E 11:07:20 10° SSE
ARIANE 5 DEB (SYLDA) 2.3 11:05:56 10° WSW 11:07:11 26° S 11:07:31 23° SSE
Cosmos 1833 4.5 11:02:03 10° S 11:07:26 47° ESE 11:11:47 15° NE
Atlas Centaur 2 1.9 11:04:58 10° NNW 11:08:11 31° NNE 11:09:38 23° ENE
Gbstr 26 Del rocket 4.3 11:08:56 10° SSW 11:15:39 47° SE 11:18:57 24° ENE
CZ-4 R/B 4.3 11:12:22 10° SSE 11:16:30 88° ENE 11:20:36 10° N
SL-08 RB Rocket 3.7 11:14:03 10° SSE 11:18:38 59° ENE 11:23:13 10° N
Cosmos 858 Rocket 4.4 11:14:23 10° N 11:19:37 82° ENE 11:24:50 10° SSE
CZ-4 R/B 2.0 11:16:00 10° SE 11:19:50 35° ENE 11:21:29 25° NE
Delta 2 Rocket 4.4 11:16:08 10° WSW 11:20:18 38° NW 11:22:30 21° NNE
PSLV R/B 4.5 11:19:49 29° ENE 11:21:15 38° ESE 11:25:09 10° S
GPS 2-12 Rocket1 4.1 11:18:21 10° W 11:22:22 32° NNW 11:24:09 23° NNE
Cosmos 1666 Rocket 4.3 11:23:21 10° NNW 11:27:37 53° W 11:31:51 10° S
Cosmos 2360 4.2 11:23:47 10° NNW 11:29:29 87° WSW 11:35:10 10° SSE
Cosmos 2228 Rocket 2.9 11:25:51 10° S 11:30:15 69° E 11:32:32 27° NNE
Cosmos 1470 Rocket 3.6 11:26:58 13° N 11:30:52 59° E 11:35:16 10° SSE
Meteor 1-11 Rocket 4.3 11:29:45 30° NE 11:31:23 35° E 11:36:40 10° SSE
HJ-1C 4.4 11:35:37 10° SSE 11:37:37 33° SSE 11:37:37 33° SSE
H-2A R/B 4.4 11:34:49 10° SSW 11:39:13 26° WSW 11:43:32 10° NW
Meteor 1-19 Rocket 4.2 11:44:18 10° S 11:50:18 73° E 11:52:42 38° NNE
